This demonstration page uses our WeatherBlox Daily Observations layout. Learn more.

Left ArrowRight Arrow

39.01783, -85.05884

Hourly Observations for March 12, 2022

Temp ( °F °C ) Dew Point ( °F °C ) Humidity (%) Winds ( mph kmh ) Pressure ( in mb ) Visibility ( mi km ) Precip ( " mm )
12:52 am 00:52 Cloudy with Light Snow 27 -2.8 18 -7.8 69 69 NW 15 24 29.95 1014 7 11 0.00 0.00
1:00 am 01:00 Cloudy 27 -2.8 18 -7.8 69 69 NW 15 24 30.01 1016 9 14 0.00 0.00
1:52 am 01:52 Cloudy 26 -3.3 17 -8.3 69 69 NW 14 22 29.96 1014 10 16 0.00 0.00
2:52 am 02:52 Cloudy 24 -4.4 12 -11.1 60 60 NW 16 26 29.97 1015 10 16 0.00 0.00
3:52 am 03:52 Cloudy 23 -5 11 -11.7 60 60 NW 16 26 29.96 1015 10 16 0.00 0.00
4:36 am 04:36 Cloudy with Light Snow 23 -5 13 -10.6 65 65 NW 17 28 30.00 1016 7 11 0.00 0.00
4:39 am 04:39 Cloudy 23 -5 12 -11.1 63 63 NW 15 24 29.99 1016 9 14 0.00 0.00
4:52 am 04:52 Mostly Cloudy 22 -5.6 11 -11.7 63 63 NNW 20 31 29.97 1015 10 16 0.00 0.00
5:52 am 05:52 Mostly Cloudy 21 -6.1 9 -12.8 59 59 NNW 17 28 30.00 1016 10 16 0.00 0.00
6:52 am 06:52 Cloudy 20 -6.7 10 -12.2 65 65 NW 23 37 30.03 1017 10 16 0.00 0.00
7:52 am 07:52 Mostly Cloudy 19 -7.2 8 -13.3 62 62 NW 17 28 30.06 1018 10 16 0.00 0.00
8:52 am 08:52 Partly Cloudy 19 -7.2 9 -12.8 65 65 NW 17 28 30.07 1018 10 16 0.00 0.00
9:52 am 09:52 Mostly Cloudy 20 -6.7 9 -12.8 62 62 WNW 21 33 30.08 1019 10 16 0.00 0.00
10:52 am 10:52 Mostly Cloudy 21 -6.1 8 -13.3 57 57 NW 18 30 30.11 1020 10 16 0.00 0.00
11:52 am 11:52 Cloudy 22 -5.6 8 -13.3 55 55 NW 17 28 30.13 1020 10 16 0.00 0.00
12:52 pm 12:52 Cloudy 22 -5.6 8 -13.3 55 55 WNW 23 37 30.14 1021 10 16 0.00 0.00
1:52 pm 13:52 Mostly Cloudy 23 -5 8 -13.3 53 53 WNW 23 37 30.13 1020 10 16 0.00 0.00
2:52 pm 14:52 Mostly Cloudy 24 -4.4 8 -13.3 50 50 WNW 23 37 30.12 1020 10 16 0.00 0.00
3:52 pm 15:52 Mostly Cloudy 25 -3.9 8 -13.3 48 48 NW 20 31 30.13 1020 10 16 0.00 0.00
4:52 pm 16:52 Partly Cloudy 25 -3.9 8 -13.3 48 48 W 23 37 30.14 1021 10 16 0.00 0.00
5:52 pm 17:52 Partly Cloudy 25 -3.9 6 -14.4 44 44 W 21 33 30.16 1021 10 16 0.00 0.00
6:52 pm 18:52 Partly Cloudy 23 -5 6 -14.4 48 48 WNW 17 28 30.18 1022 10 16 0.00 0.00
7:52 pm 19:52 Clear 22 -5.6 7 -13.9 52 52 W 12 19 30.21 1023 10 16 0.00 0.00
8:52 pm 20:52 Clear 22 -5.6 8 -13.3 55 55 W 13 20 30.24 1024 10 16 0.00 0.00
9:52 pm 21:52 Clear 20 -6.7 8 -13.3 60 60 W 9 15 30.27 1025 10 16 0.00 0.00
10:52 pm 22:52 Clear 20 -6.7 7 -13.9 57 57 W 7 11 30.27 1025 10 16 0.00 0.00
11:52 pm 23:52 Clear 19 -7.2 8 -13.3 62 62 SW 5 7 30.26 1025 10 16 0.00 0.00

Powered by AerisWeather